Regional Weather Roundup
Issued by NWS

Home | Current Version | Previous Version | Graphics & Text | Print | Product List | Glossary On
Versions: 1 2 3 4 5 6 7 8 9 10 11 12 13 14 15 16 17 18 19 20 21 22 23 24 25 26 27 28 29 30 31 32 33 34 35 36 37 38 39 40 41 42 43 44 45 46 47 48 49 50
000
ASUS45 KBOI 280610
RWRID

IDAHO REGIONAL WEATHER ROUNDUP
NATIONAL WEATHER SERVICE BOISE ID
1200 AM MDT THU MAY 28 2015

NOTE: "FAIR" INDICATES FEW OR NO CLOUDS BELOW 12000 FEET
WITH NO SIGNIFICANT WEATHER AND/OR OBSTRUCTIONS TO VISIBILITY

IDZ012-014-280700-
SOUTHWEST IDAHO


CITY           SKY/WX    TMP DP  RH WIND       PRES   REMARKS
BOISE          CLEAR     59  45  59 CALM      30.01R
CALDWELL       CLEAR     59  41  51 CALM      30.02R
MOUNTAIN HOME  CLOUDY    57  43  59 NW6       30.01R
$$

IDZ016-017-280700-
SOUTHCENTRAL IDAHO


CITY           SKY/WX    TMP DP  RH WIND       PRES   REMARKS
BURLEY         PTCLDY    53  45  74 SW13      30.04R
JEROME         PTCLDY    54  45  71 S6        30.05R
TWIN FALLS     PTCLDY    55  45  68 S14       30.02S
$$

IDZ019>023-280700-
SOUTHEAST IDAHO


CITY           SKY/WX    TMP DP  RH WIND       PRES   REMARKS
IDAHO FALLS    CLOUDY    50  46  86 E7        30.10R
POCATELLO      CLOUDY    52  47  83 E12       30.08S
REXBURG        CLOUDY    48  44  86 E7        30.09F
$$

IDZ006-010-011-018-031-032-280700-
CENTRAL IDAHO MOUNTAINS


CITY           SKY/WX    TMP DP  RH WIND       PRES   REMARKS
MCCALL         CLEAR     48  41  76 NE5       30.08R
HAILEY         PTCLDY    45  43  93 CALM      30.10S
STANLEY          N/A     38  35  89 S3        30.15S
SALMON         CLOUDY    50  46  87 SE6       30.07S
CHALLIS        PTCLDY    45  37  73 W3        30.08R
$$

IDZ002-004-006-007-026-280700-
NORTHERN IDAHO


CITY           SKY/WX    TMP DP  RH WIND       PRES   REMARKS
LEWISTON       CLEAR     60  50  69 CALM      30.00R
LOWELL           N/A     53  50  89 CALM      30.06R
COEUR D`ALENE  CLEAR     61  50  67 S6        30.00R
MULLAN PASS    PTCLDY    44  41  89 NW6       30.11R
$$



USA.gov is the U.S. government's official web portal to all federal, state and local government web resources and services.